General Aviation Weather

Text Reports

Enter one or more of the following location identifiers separated by a space:

Zip Code, Four-Character ICAO or Three-Character IATA airport codes.

METAR - Aviation Routine Weather Report
PAMM - Metlakatla, Alaska
Updated at 7:16 PM GMT on May 27, 2015 (11:16 AM AKDT):
METAR PAMM 271916Z AUTO 32011KT 10SM CLR 14/07 A3019 RMK AO1
TAF - Terminal Area Forecast
PAMM - Metlakatla, Alaska
Updated at 7:16 PM GMT on May 27, 2015 (11:16 AM AKDT):
No TAF is currently available for this location.
Decoded:
No decoded TAF is available.
PIREP - Pilot Weather Report
PAMM - Metlakatla, Alaska
Updated at 7:16 PM GMT on May 27, 2015 (11:16 AM AKDT):
No PIREP is currently available for this location.
AIRMET - Airmens Meteorological Information
PAMM - Metlakatla, Alaska
Updated at 7:16 PM GMT on May 27, 2015 (11:16 AM AKDT):
No AIRMET is currently available for this location.
SIGMET - Significant Meteorological Information
PAMM - Metlakatla, Alaska
Updated at 7:16 PM GMT on May 27, 2015 (11:16 AM AKDT):
No SIGMET is currently available for this location.
NOTAM - Notice to Airmen
PAMM - Metlakatla, Alaska
Updated at 7:16 PM GMT on May 27, 2015 (11:16 AM AKDT):
No NOTAM is currently available for this location.
Forecast Area
PAMM - Metlakatla, Alaska
Updated at 7:16 PM GMT on May 27, 2015 (11:16 AM AKDT):
No NOTAM is currently available for this location.
Aviation Weather Maps